Location: Newark
(54.6833°N, 25.2833°E)
Time: 18:53:22
(UTC+00:00)

Tiros 1 despin weight - Pass Details

Date: 24 November 2019
Orbit: 594 x 642 km, 48.2° (Epoch: 06 December)

Event Time Altitude Azimuth Distance (km) Brightness Sun altitude
Rises 10:37:08 0° 229° (SW) 2,823 ? 14.5°
Reaches altitude 10° 10:39:41 10° 216° (SW) 1,923 ? 14.4°
Maximum altitude 10:43:20 26° 160° (SSE) 1,187 ? 14.3°
Drops below altitude 10° 10:47:00 10° 104° (ESE) 1,934 ? 14.3°
Sets 10:49:34 0° 92° (E) 2,843 ? 14.2°
